DW2199 Weather Reports


Display with metric or nautical units.
time (UTC)temp
F
wind
direction
speed
MPH
gust
MPH
rain 1hr
in
rain 24hr
in
rain mn
in
humidity
%
barometer
mb
20260510201524 74 153 0.0 6.0 0.00 0.00 0.00 30 1010.7
20260510200022 74 184 0.0 11.0 0.00 0.00 0.00 32 1010.7
20260510194523 73 191 0.0 8.0 0.00 0.00 0.00 34 1010.8
20260510193019 74 200 0.0 4.0 0.00 0.00 0.00 33 1011.0
20260510191517 73 347 1.0 8.0 0.00 0.00 0.00 33 1011.0
20260510190106 71 358 2.0 8.0 0.00 0.00 0.00 35 1011.1
20260510184604 73 184 0.0 5.0 0.00 0.00 0.00 33 1011.1
20260510183040 72 8 1.0 5.0 0.00 0.00 0.00 37 1011.1
20260510181539 71 225 0.0 10.0 0.00 0.00 0.00 39 1011.0
20260510180036 70 199 2.0 7.0 0.00 0.00 0.00 39 1010.9
20260510174532 67 190 0.0 10.0 0.00 0.00 0.00 51 1010.9
20260510173028 65 207 0.0 4.0 0.00 0.00 0.00 59 1011.1
20260510171525 64 190 0.0 6.0 0.00 0.00 0.00 59 1011.1
20260510170026 63 197 1.0 5.0 0.00 0.00 0.00 64 1011.2
20260510164524 63 198 0.0 3.0 0.00 0.00 0.00 69 1011.5
20260510163020 60 205 0.0 2.0 0.00 0.00 0.00 74 1011.7
20260510161523 58 195 0.0 2.0 0.00 0.00 0.00 77 1011.8
20260510160023 57 174 0.0 2.0 0.00 0.00 0.00 78 1011.8
20260510154514 56 195 0.0 3.0 0.00 0.00 0.00 84 1011.9
20260510153012 55 154 0.0 4.0 0.00 0.00 0.00 85 1011.8
20260510151521 55 249 0.0 4.0 0.00 0.00 0.00 84 1011.6
20260510150028 57 194 0.0 3.0 0.00 0.00 0.00 88 1011.2
20260510144528 57 219 0.0 4.0 0.00 0.00 0.00 92 1011.1
20260510143020 54 207 0.0 5.0 0.00 0.00 0.00 95 1011.0
20260510141520 53 167 0.0 2.0 0.00 0.00 0.00 94 1011.1
20260510140007 53 169 0.0 2.0 0.00 0.00 0.00 93 1010.8
20260510134505 53 11 0.0 3.0 0.00 0.00 0.00 92 1010.8
20260510133002 54 176 0.0 2.0 0.00 0.00 0.00 90 1010.7
20260510131602 55 10 0.0 3.0 0.00 0.00 0.00 91 1010.6
20260510130058 53 207 0.0 2.0 0.00 0.00 0.00 93 1010.3
20260510124600 53 181 0.0 2.0 0.00 0.00 0.00 93 1010.5
20260510123053 53 187 0.0 2.0 0.00 0.00 0.00 93 1010.3
20260510121556 53 217 0.0 1.0 0.00 0.00 0.00 94 1010.3
20260510120053 53 203 0.0 1.0 0.00 0.00 0.00 94 1010.2
20260510114601 53 256 0.0 2.0 0.00 0.00 0.00 95 1010.2
20260510113047 52 210 0.0 1.0 0.00 0.00 0.00 95 1010.2
20260510111515 51 168 0.0 3.0 0.00 0.00 0.00 96 1010.1
20260510110027 51 188 0.0 1.0 0.00 0.00 0.00 96 1009.7
20260510104512 51 187 0.0 0.0 0.00 0.00 0.00 96 1009.5
20260510103012 51 187 0.0 0.0 0.00 0.00 0.00 96 1009.2
20260510101512 51 187 0.0 1.0 0.00 0.00 0.00 96 1009.1
20260510100011 51 187 0.0 1.0 0.00 0.00 0.00 96 1009.1
20260510094511 51 187 0.0 1.0 0.00 0.00 0.00 96 1008.7
20260510093010 51 187 0.0 1.0 0.00 0.00 0.00 96 1008.8
20260510091559 51 190 0.0 2.0 0.00 0.00 0.00 96 1008.6
20260510090059 51 164 0.0 2.0 0.00 0.00 0.00 96 1008.6
20260510084558 51 165 0.0 1.0 0.00 0.00 0.00 96 1008.4
20260510083100 51 208 0.0 2.0 0.00 0.00 0.00 96 1008.3
20260510081557 51 347 0.0 2.0 0.00 0.00 0.00 96 1008.0
20260510080100 51 348 0.0 1.0 0.00 0.00 0.00 96 1008.3
20260510074605 51 348 0.0 2.0 0.00 0.00 0.00 96 1008.1
20260510073055 51 348 0.0 1.0 0.00 0.00 0.00 96 1008.3
20260510071537 51 208 0.0 2.0 0.00 0.00 0.00 96 1008.4
20260510070042 51 203 0.0 1.0 0.00 0.00 0.00 96 1008.5
20260510064524 51 203 0.0 2.0 0.00 0.00 0.00 96 1009.0
20260510063025 51 266 0.0 1.0 0.00 0.00 0.00 96 1009.1
20260510061527 51 267 0.0 1.0 0.00 0.00 0.00 96 1008.9
20260510060023 51 226 0.0 2.0 0.00 0.00 0.00 96 1009.1
20260510054523 51 173 0.0 5.0 0.00 0.00 0.00 96 1008.7
20260510053022 51 349 0.0 1.0 0.00 0.00 0.00 96 1008.6
20260510051523 51 348 0.0 1.0 0.00 0.00 0.00 96 1008.5
20260510050021 51 347 0.0 1.0 0.00 0.00 0.00 96 1008.5
20260510044512 51 356 0.0 2.0 0.00 0.00 0.00 96 1008.8
20260510043111 51 356 1.0 3.0 0.00 0.00 0.00 96 1008.9
20260510041508 51 344 0.0 2.0 0.00 0.00 0.00 96 1008.5
20260510040007 50 212 0.0 4.0 0.00 0.00 0.00 96 1008.6
20260510034503 50 183 0.0 2.0 0.00 0.00 0.00 96 1008.6
20260510033128 49 181 0.0 1.0 0.00 0.00 0.00 96 1008.5
20260510031624 49 200 0.0 0.0 0.00 0.00 0.00 96 1008.6
20260510024545 48 200 0.0 0.0 0.00 0.00 0.00 96 1008.7
20260510023041 48 200 0.0 0.0 0.00 0.00 0.00 96 1008.8
20260510021539 48 200 0.0 0.0 0.00 0.00 0.00 96 1008.7
20260510020033 48 200 0.0 0.0 0.00 0.00 0.00 96 1008.9
20260510014533 48 200 0.0 0.0 0.00 0.00 0.00 95 1008.8
20260510013037 48 200 0.0 0.0 0.00 0.00 0.00 95 1008.8
20260510011528 48 200 0.0 0.0 0.00 0.00 0.00 95 1008.8
20260510010027 48 200 0.0 1.0 0.00 0.00 0.00 95 1008.8
20260510004512 48 200 0.0 0.0 0.00 0.00 0.00 95 1009.1
20260510003010 48 200 0.0 0.0 0.00 0.00 0.00 95 1009.0
20260510001515 48 200 0.0 0.0 0.00 0.00 0.00 95 1008.8
20260510000001 48 200 0.0 0.0 0.00 0.00 0.00 95 1008.6
20260509234611 48 200 0.0 0.0 0.00 0.00 0.00 95 1008.5
20260509233057 48 200 0.0 0.0 0.00 0.00 0.00 95 1008.5
20260509231555 48 200 0.0 1.0 0.00 0.00 0.00 95 1008.3
20260509230053 48 200 0.0 0.0 0.00 0.00 0.00 95 1008.3
20260509224529 48 200 0.0 0.0 0.00 0.00 0.00 95 1008.3
20260509223027 48 200 0.0 0.0 0.00 0.00 0.00 95 1008.4
20260509221515 48 200 0.0 0.0 0.00 0.00 0.00 95 1008.4
20260509220014 48 200 0.0 0.0 0.00 0.00 0.00 95 1008.5
20260509214517 48 200 0.0 0.0 0.00 0.00 0.00 95 1008.7
20260509213010 48 200 0.0 0.0 0.00 0.00 0.00 95 1008.9
20260509211508 48 200 0.0 1.0 0.00 0.00 0.00 95 1009.0
20260509210009 47 200 0.0 1.0 0.00 0.00 0.00 95 1009.1
20260509204515 47 200 0.0 0.0 0.00 0.00 0.00 94 1009.2
20260509203008 47 200 0.0 0.0 0.00 0.00 0.00 94 1009.3